W1CPR-13 Weather Reports


time (UTC)temp
F
wind
direction
speed
knots
gust
knots
rain 1hr
in
rain 24hr
in
rain mn
in
humidity
%
barometer
mb
20260507100043 47 234 0.0 0.9 0.03 0.12 0.07 88 1015.3
20260507094543 48 234 0.0 1.7 0.03 0.11 0.06 88 1015.2
20260507093044 48 215 0.9 2.6 0.02 0.10 0.05 88 1015.3
20260507091539 49 207 0.9 2.6 0.02 0.09 0.04 88 1015.2
20260507090033 50 205 0.0 2.6 0.02 0.09 0.04 88 1015.4
20260507084531 50 167 0.9 2.6 0.02 0.08 0.03 87 1015.2
20260507083030 50 163 0.0 0.9 0.03 0.08 0.03 87 1015.1
20260507081535 51 163 0.0 1.7 0.02 0.07 0.02 87 1014.7
20260507080026 51 236 0.9 1.7 0.02 0.07 0.02 86 1014.9
20260507074524 52 236 0.9 1.7 0.00 0.05 0.00 84 1014.8
20260507073021 52 236 0.9 2.6 0.00 0.05 0.00 83 1014.2
20260507071523 52 248 0.9 1.7 0.00 0.05 0.00 82 1014.3
20260507070019 53 247 0.9 1.7 0.00 0.05 0.00 82 1014.2
20260507064517 53 246 0.9 2.6 0.00 0.05 0.00 84 1014.3
20260507063015 53 238 0.9 2.6 0.00 0.05 0.00 85 1014.3
20260507061512 54 215 0.9 1.7 0.00 0.05 0.00 86 1013.9
20260507060011 55 290 0.9 3.5 0.00 0.05 0.00 87 1014.3
20260507054510 55 275 0.9 6.1 0.00 0.05 0.00 87 1014.6
20260507053009 55 220 0.9 2.6 0.00 0.05 0.00 87 1014.4
20260507051506 55 187 0.0 3.5 0.00 0.05 0.00 86 1014.1
20260507050008 56 217 0.9 2.6 0.00 0.05 0.00 87 1014.2
20260507044600 58 204 0.9 4.3 0.01 0.05 0.00 86 1014.2
20260507043102 58 203 1.7 3.5 0.01 0.05 0.00 86 1014.1
20260507041605 58 194 0.9 3.5 0.01 0.05 0.00 86 1014.1
20260507040057 58 201 1.7 7.0 0.01 0.05 0.00 86 1014.4
20260507034557 59 207 0.0 3.5 0.00 0.04 0.04 86 1014.4
20260507033053 59 197 4.3 8.7 0.00 0.04 0.04 87 1014.2
20260507031551 59 197 3.5 7.8 0.00 0.04 0.04 87 1013.7
20260507030056 58 203 1.7 7.8 0.00 0.04 0.04 87 1013.4
20260507024548 58 204 1.7 7.8 0.00 0.04 0.04 86 1013.7
20260507023101 58 202 1.7 6.1 0.00 0.04 0.04 86 1013.8
20260507021552 58 202 1.7 7.8 0.00 0.04 0.04 87 1013.8
20260507020046 58 184 1.7 6.1 0.00 0.04 0.04 87 1013.7
20260507014557 58 208 0.9 8.7 0.00 0.04 0.04 86 1013.9
20260507013103 57 223 2.6 8.7 0.00 0.04 0.04 87 1013.8
20260507011544 57 212 1.7 9.6 0.00 0.04 0.04 87 1014.1
20260507010042 57 194 2.6 8.7 0.00 0.04 0.04 87 1014.2
20260507004541 57 137 0.0 6.1 0.01 0.04 0.04 87 1014.1
20260507003040 57 190 1.7 7.8 0.01 0.04 0.04 87 1014.2
20260507001555 57 190 2.6 7.8 0.02 0.04 0.04 87 1013.9
20260507000039 58 215 1.7 9.6 0.01 0.03 0.03 87 1013.7
20260506234537 58 143 1.7 4.3 0.01 0.03 0.03 87 1014.0
20260506233043 58 145 0.9 2.6 0.02 0.03 0.03 87 1013.9
20260506231539 59 175 1.7 7.0 0.01 0.02 0.02 87 1013.8
20260506230033 59 162 0.9 7.0 0.01 0.02 0.02 87 1013.9
20260506224531 59 130 2.6 7.0 0.01 0.02 0.02 86 1014.1
20260506223029 60 193 0.9 5.2 0.00 0.01 0.01 86 1014.2
20260506221528 60 148 0.9 4.3 0.00 0.01 0.01 86 1014.2
20260506220026 61 186 0.9 7.8 0.01 0.01 0.01 86 1014.4
20260506214524 61 255 1.7 10.4 0.01 0.01 0.01 85 1014.7
20260506213024 61 225 1.7 13.9 0.01 0.01 0.01 84 1014.6
20260506211523 61 242 3.5 10.4 0.01 0.01 0.01 84 1014.7
20260506210022 61 162 4.3 9.6 0.00 0.00 0.00 83 1014.7
20260506204520 62 201 4.3 10.4 0.00 0.00 0.00 81 1014.9
20260506203022 63 221 1.7 8.7 0.00 0.00 0.00 79 1015.0
20260506201520 63 219 3.5 11.3 0.00 0.00 0.00 79 1014.7
20260506200018 64 153 0.9 7.0 0.00 0.00 0.00 80 1014.6
20260506194517 64 144 0.0 7.0 0.00 0.00 0.00 77 1015.0
20260506193016 65 18 0.9 4.3 0.00 0.00 0.00 74 1015.1
20260506191517 67 150 0.9 5.2 0.00 0.00 0.00 68 1015.0
20260506190015 68 175 2.6 7.8 0.00 0.00 0.00 64 1014.8
20260506184513 69 214 2.6 10.4 0.00 0.00 0.00 62 1015.0
20260506183013 69 187 0.9 9.6 0.00 0.00 0.00 62 1014.9
20260506181513 69 277 3.5 9.6 0.00 0.00 0.00 61 1015.1
20260506180010 70 201 2.6 7.0 0.00 0.00 0.00 61 1015.2
20260506174509 70 228 2.6 7.0 0.00 0.00 0.00 62 1015.5
20260506173008 70 169 0.9 8.7 0.00 0.00 0.00 61 1015.6
20260506171508 70 242 2.6 6.1 0.00 0.00 0.00 61 1015.6
20260506170007 70 182 2.6 7.0 0.00 0.00 0.00 61 1015.8
20260506164506 70 188 1.7 9.6 0.00 0.00 0.00 61 1016.0
20260506163008 70 217 2.6 6.1 0.00 0.00 0.00 60 1016.1
20260506161501 70 151 2.6 6.1 0.00 0.00 0.00 60 1016.5
20260506160108 70 123 1.7 8.7 0.00 0.00 0.00 60 1016.6
20260506154558 71 177 0.9 12.2 0.00 0.00 0.00 60 1016.8
20260506153056 71 248 0.9 7.0 0.00 0.00 0.00 59 1017.1
20260506151554 71 222 2.6 6.1 0.00 0.00 0.00 60 1017.2
20260506150055 70 167 2.6 11.3 0.00 0.00 0.00 62 1017.3
20260506144552 70 221 2.6 8.7 0.00 0.00 0.00 62 1017.2
20260506143048 69 154 3.5 8.7 0.00 0.00 0.00 64 1017.1
20260506141544 68 109 2.6 8.7 0.00 0.00 0.00 67 1017.0
20260506140045 66 198 2.6 8.7 0.00 0.00 0.00 70 1017.3
20260506134607 65 194 0.9 7.0 0.00 0.00 0.00 72 1017.5
20260506133035 64 225 1.7 6.1 0.00 0.00 0.00 73 1017.9
20260506131537 64 218 4.3 8.7 0.00 0.00 0.00 73 1017.7
20260506130033 64 183 1.7 7.0 0.00 0.00 0.00 74 1017.7
20260506124531 63 201 1.7 6.1 0.00 0.00 0.00 77 1018.1
20260506123030 62 227 1.7 8.7 0.00 0.00 0.00 77 1018.0
20260506121529 62 108 1.7 7.8 0.00 0.00 0.00 79 1017.7
20260506120029 61 210 1.7 5.2 0.00 0.00 0.00 80 1018.2
20260506114534 61 213 1.7 8.7 0.00 0.00 0.00 79 1018.4
20260506113032 60 198 1.7 6.1 0.00 0.00 0.00 80 1018.4
20260506111526 60 232 0.9 6.1 0.00 0.00 0.00 80 1018.3
20260506110025 60 107 0.9 5.2 0.00 0.00 0.00 81 1018.2
20260506104524 59 146 0.9 7.8 0.00 0.00 0.00 81 1018.3
20260506103026 60 207 0.9 5.2 0.00 0.00 0.00 81 1018.4
20260506101520 60 162 1.7 7.0 0.00 0.00 0.00 80 1018.2